Healy, AK

2:27 AM AKST on February 22, 2017 (GMT -0900)
McKinley National Park

Weather History for PAIN - May, 2014

Change the Weather History Date:

Monday, May 12, 2014

  Actual Average Record
Temperature  
Mean Temperature 47 °F -  
Max Temperature 66 °F 51 °F 66 °F (2014)
Min Temperature 28 °F 25 °F 13 °F (1952)
Degree Days  
Heating Degree Days 18    
Moisture  
Dew Point 26 °F    
Average Humidity 44    
Maximum Humidity 86    
Minimum Humidity 19    
Precipitation  
Precipitation 0.00 in - - ()
Sea Level Pressure  
Sea Level Pressure 30.25 in    
Wind  
Wind Speed 2 mph (South)    
Max Wind Speed 8 mph    
Max Gust Speed -    
Visibility 10 miles    
Events      
Averages and records for this station are not official NWS values.
T = Trace of Precipitation, MM = Missing Value Source: NWS Daily Summary

Daily Weather History Graph

Daily Weather History Graph

Search for Another Location

Airport or City:

Trip Planner

Search our weather history database for the weather conditions in past years. The results will help you decide how hot, cold, wet, or windy it might be!

Date:

Astronomy

May. 12, 2014 Rise Set
Actual Time 4:54 AM AKDT 10:52 PM AKDT
Civil Twilight 3:27 AM AKDT 12:21 AM AKDT
Nautical Twilight Sun does not rise Sun does not rise
Astronomical Twilight Sun does not rise Sun does not rise
Moon 8:13 PM AKDT (5/12) 4:39 AM AKDT (5/12)
Length of Visible Light 20h 53m
Length of Day
17h 58m
Waxing Gibbous, 95% of the Moon is Illuminated
May 12
Waxing Gibbous
May 14
Full
May 21
Last Quarter
May 28
New
Jun 5
First Quarter

Hourly Weather History & Observations

Time (AKDT) Temp. Windchill Dew Point Humidity Pressure Visibility Wind Dir Wind Speed Gust Speed Precip Events Conditions
12:16 AM 42.8 °F 40.1 °F 24.8 °F 49% 30.26 in 10.0 mi SW 4.6 mph - N/A   Clear
12:36 AM 41.0 °F 39.0 °F 24.8 °F 53% 30.26 in 10.0 mi SSW 3.5 mph - N/A   Clear
12:56 AM 39.2 °F 35.9 °F 24.8 °F 56% 30.27 in 10.0 mi SSW 4.6 mph - N/A   Clear
1:16 AM 39.2 °F 35.9 °F 24.8 °F 56% 30.28 in 10.0 mi SW 4.6 mph - N/A   Clear
1:36 AM 37.4 °F - 24.8 °F 60% 30.28 in 10.0 mi Calm Calm - N/A   Clear
1:56 AM 37.4 °F - 24.8 °F 60% 30.29 in 10.0 mi Calm Calm - N/A   Clear
2:16 AM 37.4 °F - 24.8 °F 60% 30.29 in 10.0 mi Calm Calm - N/A   Clear
2:36 AM 35.6 °F - 24.8 °F 65% 30.29 in 10.0 mi Calm Calm - N/A   Clear
2:56 AM 33.8 °F - 24.8 °F 70% 30.30 in 10.0 mi Calm Calm - N/A   Clear
3:16 AM 33.8 °F - 24.8 °F 70% 30.30 in 10.0 mi Calm Calm - N/A   Clear
3:36 AM 32.0 °F - 24.8 °F 75% 30.30 in 10.0 mi Calm Calm - N/A   Clear
3:56 AM 32.0 °F - 24.8 °F 75% 30.29 in 10.0 mi Calm Calm - N/A   Clear
4:16 AM 30.2 °F - 24.8 °F 80% 30.29 in 10.0 mi Calm Calm - N/A   Clear
4:36 AM 28.4 °F - 24.8 °F 86% 30.29 in 10.0 mi Calm Calm - N/A   Clear
4:56 AM 28.4 °F - 24.8 °F 86% 30.30 in 10.0 mi Calm Calm - N/A   Clear
5:16 AM 28.4 °F - 24.8 °F 86% 30.30 in 10.0 mi Calm Calm - N/A   Clear
5:36 AM 30.2 °F - 24.8 °F 80% 30.30 in 10.0 mi Calm Calm - N/A   Clear
6:16 AM 28.4 °F - 24.8 °F 86% 30.30 in 10.0 mi Calm Calm - N/A   Clear
6:36 AM 30.2 °F - 24.8 °F 80% 30.31 in 10.0 mi Calm Calm - N/A   Clear
6:56 AM 30.2 °F - 24.8 °F 80% 30.31 in 10.0 mi Calm Calm - N/A   Clear
7:16 AM 32.0 °F - 24.8 °F 75% 30.31 in 10.0 mi Calm Calm - N/A   Clear
7:36 AM 33.8 °F - 26.6 °F 75% 30.31 in 10.0 mi Calm Calm - N/A   Clear
7:56 AM 35.6 °F - 26.6 °F 70% 30.31 in 10.0 mi Calm Calm - N/A   Clear
8:16 AM 37.4 °F - 26.6 °F 65% 30.31 in 10.0 mi Calm Calm - N/A   Clear
8:36 AM 39.2 °F - 26.6 °F 61% 30.30 in 10.0 mi Calm Calm - N/A   Clear
8:56 AM 42.8 °F - 26.6 °F 53% 30.30 in 10.0 mi Calm Calm - N/A   Clear
9:16 AM 46.4 °F - 26.6 °F 46% 30.29 in 10.0 mi Calm Calm - N/A   Clear
9:36 AM 48.2 °F - 26.6 °F 43% 30.29 in 10.0 mi ESE 3.5 mph - N/A   Clear
9:56 AM 50.0 °F - 24.8 °F 37% 30.28 in 10.0 mi Calm Calm - N/A   Clear
10:16 AM 53.6 °F - 24.8 °F 33% 30.28 in 10.0 mi Calm Calm - N/A   Clear
10:36 AM 53.6 °F - 24.8 °F 33% 30.28 in 10.0 mi Calm Calm - N/A   Clear
10:56 AM 55.4 °F - 24.8 °F 31% 30.27 in 10.0 mi Calm Calm - N/A   Clear
11:36 AM 59.0 °F - 24.8 °F 27% 30.26 in 10.0 mi Calm Calm - N/A   Clear
11:56 AM 60.8 °F - 24.8 °F 25% 30.26 in 7.0 mi Calm Calm - N/A   Clear
12:16 PM 60.8 °F - 24.8 °F 25% 30.25 in 10.0 mi NNE 4.6 mph - N/A   Clear
12:36 PM 62.6 °F - 23.0 °F 22% 30.25 in 10.0 mi Calm Calm - N/A   Clear
12:56 PM 64.4 °F - 24.8 °F 22% 30.24 in 10.0 mi SSW 3.5 mph - N/A   Clear
1:16 PM 64.4 °F - 23.0 °F 21% 30.24 in 10.0 mi SW 3.5 mph - N/A   Clear
1:36 PM 64.4 °F - 24.8 °F 22% 30.23 in 10.0 mi SE 3.5 mph - N/A   Clear
1:56 PM 64.4 °F - 24.8 °F 22% 30.23 in 10.0 mi Calm Calm - N/A   Clear
2:16 PM 64.4 °F - 24.8 °F 22% 30.23 in 10.0 mi SSE 4.6 mph - N/A   Clear
2:36 PM 64.4 °F - 24.8 °F 22% 30.23 in 10.0 mi SE 4.6 mph - N/A   Clear
2:56 PM 66.2 °F - 24.8 °F 21% 30.22 in 10.0 mi SSE 8.1 mph - N/A   Clear
3:16 PM 66.2 °F - 24.8 °F 21% 30.22 in 10.0 mi SE 4.6 mph - N/A   Clear
3:36 PM 66.2 °F - 24.8 °F 21% 30.21 in 10.0 mi South 3.5 mph - N/A   Clear
3:56 PM 66.2 °F - 24.8 °F 21% 30.21 in 10.0 mi SSE 5.8 mph - N/A   Clear
4:16 PM 66.2 °F - 23.0 °F 19% 30.20 in 10.0 mi SW 4.6 mph - N/A   Clear
4:36 PM 66.2 °F - 23.0 °F 19% 30.20 in 10.0 mi SSE 4.6 mph - N/A   Clear
4:56 PM 66.2 °F - 24.8 °F 21% 30.20 in 10.0 mi SSE 4.6 mph - N/A   Clear
5:16 PM 66.2 °F - 24.8 °F 21% 30.20 in 10.0 mi South 4.6 mph - N/A   Clear
5:36 PM 66.2 °F - 24.8 °F 21% 30.20 in 10.0 mi Calm Calm - N/A   Clear
5:56 PM 66.2 °F - 26.6 °F 23% 30.19 in 10.0 mi Calm Calm - N/A   Clear
6:16 PM 66.2 °F - 26.6 °F 23% 30.19 in 10.0 mi Calm Calm - N/A   Clear
6:36 PM 66.2 °F - 24.8 °F 21% 30.19 in 10.0 mi Calm Calm - N/A   Clear
6:56 PM 64.4 °F - 26.6 °F 24% 30.20 in 10.0 mi Calm Calm - N/A   Clear
7:16 PM 64.4 °F - 26.6 °F 24% 30.20 in 10.0 mi Calm Calm - N/A   Scattered Clouds
7:36 PM 62.6 °F - 26.6 °F 26% 30.20 in 10.0 mi Calm Calm - N/A   Scattered Clouds
7:56 PM 62.6 °F - 26.6 °F 26% 30.20 in 10.0 mi East 3.5 mph - N/A   Mostly Cloudy
8:16 PM 62.6 °F - 26.6 °F 26% 30.20 in 10.0 mi East 3.5 mph - N/A   Mostly Cloudy
8:36 PM 60.8 °F - 26.6 °F 27% 30.20 in 10.0 mi Calm Calm - N/A   Mostly Cloudy
8:56 PM 60.8 °F - 26.6 °F 27% 30.21 in 10.0 mi Calm Calm - N/A   Mostly Cloudy
9:16 PM 59.0 °F - 26.6 °F 29% 30.21 in 10.0 mi Calm Calm - N/A   Scattered Clouds
9:36 PM 55.4 °F - 30.2 °F 38% 30.21 in 10.0 mi Calm Calm - N/A   Clear
10:16 PM 51.8 °F - 28.4 °F 41% 30.22 in 10.0 mi West 3.5 mph - N/A   Scattered Clouds
10:36 PM 50.0 °F - 30.2 °F 47% 30.22 in 10.0 mi Calm Calm - N/A   Scattered Clouds
10:56 PM 48.2 °F - 30.2 °F 50% 30.22 in 10.0 mi WSW 3.5 mph - N/A   Partly Cloudy
11:16 PM 48.2 °F - 28.4 °F 46% 30.23 in 10.0 mi West 3.5 mph - N/A   Clear
11:36 PM 46.4 °F - 28.4 °F 50% 30.23 in 10.0 mi Calm Calm - N/A   Clear
11:56 PM 44.6 °F 43.1 °F 28.4 °F 53% 30.23 in 10.0 mi SW 3.5 mph - N/A   Clear